Torna al catalogo

NTS 2

LostNavigazioneHEO
NORAD 10091·PAYLOAD·🇺🇸 United States

Lanciato Jun 23, 1977 da Vandenberg Space Force Base

Loading…

Prossimi Passaggi (prossime 24 ore)

TLE

ObsoletoSource: Space-Track

Epoca: Aug 3, 2026, 03:13 UTC

1 10091U 77053A   26215.13424075  .00000008  00000-0  00000+0 0  9992
2 10091  63.0451 279.5730 0071334 220.7701 207.8982  2.00460177359620

Traccia NTS 2 in tempo reale con AllMySat

Download on the App Store